Skip Page Navigation
NASA JPL Caltech
NASA Logo - Jet Propulsion Laboratory + View the NASA Portal
+ Near-Earth Object (NEO) Project
Search JPL
JPL Home Earth Solar System Stars & Galaxies Technology
JPL Solar System Dynamics
BODIES ORBITS EPHEMERIDES TOOLS PHYSICAL DATA DISCOVERY FAQ SITE MAP
JPL Small-Body Database Browser
Search: [ help ]  
2190 Coubertin (1976 GV3)
Classification: Main-belt Asteroid          SPK-ID: 2002190
Ephemeris | Orbit Diagram | Orbital Elements | Physical Parameters | Discovery Circumstances ]

[ show orbit diagram ]
Orbital Elements at Epoch 2455200.5 (2010-Jan-04.0) TDB
Reference: MPO169561 (heliocentric ecliptic J2000)
 Element Value Uncertainty (1-sigma)   Units 
e 0.0908819 n/a  
a 2.4703358 n/a AU
q 2.2458270 n/a AU
i 0.82828 n/a deg
node 262.70115 n/a deg
peri 315.45852 n/a deg
M 243.14134 n/a deg
tp 2455660.8528299
(2011-Apr-09.35282991)
n/a JED
period 1418.1834598
3.88
n/a
n/a
d
yr
n 0.25384586 n/a deg/d
Q 2.6948446 n/a AU
  Orbit Determination Parameters
   # obs. used (total)      975  
   first obs. used      1933-??-??  
   last obs. used      2010-01-18  
   # oppositions      24  
   planetary ephem.      DE403  
   quality code      0  
   fit RMS      0.57  
   data source      MPC:mpn  
   producer      MPC  

Additional Information
 T_jup = 3.479 

Ephemeris | Orbit Diagram | Orbital Elements | Physical Parameters | Discovery Circumstances ]

Physical Parameter Table
Parameter Symbol Value Units Sigma Reference Notes
absolute magnitude H 12.5 mag n/a PDS3 (MPC 28108)  

2190 Coubertin           Discovered 1976 Apr. 2 by N. S. Chernykh at the Crimean Astrophysical Observatory.
Named in memory of Pierre de Coubertin (1863-1937), a prominent French public figure, teacher, historian and man of letters. He was responsible for the renaissance of the Olympic Games, and the name is suggested by the discoverer in connection with the 22nd Olympic Games in Moscow.
NOTE: some special characters may not display properly (any characters within {} are an attempt to place the proper accent above a character)
Reference: MPC 5360Last Updated: 2006-03-21

Alternate Designations
 1976 GV3 = 1933 FB1 = 1960 DF = 1965 PD = 1973 QR = 1977 QO1 
Ephemeris | Orbit Diagram | Orbital Elements | Physical Parameters | Discovery Circumstances ]
ABOUT SSD CREDITS/AWARDS PRIVACY/COPYRIGHT GLOSSARY LINKS
FirstGov 2010-Feb-10 06:02 UT
(server date/time)  
NASA Home Page
Site Manager:   Donald K. Yeomans
Webmaster  Alan B. Chamberlin